Location: Cahas Mountain Overlook
(37.0833°N, 80.1000°W)
Time: 14:03:11
(UTC-05:00)

Vanguard 2 Rocket - Pass Details

Date: 14 December 2023
Orbit: 554 x 3310 km, 32.9° (Epoch: 22 February)

Event Time Altitude Azimuth Distance (km) Brightness Sun altitude
Rises 18:37:41 0° 283° (WNW) 6,887 12.5 -18.0°
Reaches altitude 10° 18:42:31 10° 277° (W) 6,073 12.1 -19.0°
Maximum altitude 18:59:42 38° 218° (SW) 4,278 10.6 -22.3°
Drops below altitude 10° 19:15:14 10° 157° (SSE) 5,467 10.7 -25.3°
Sets 19:19:23 0° 150° (SSE) 6,158 11.0 -26.1°
